Starlink 3739

operational
NORAD ID: 52266 Int'l Des: 2022-041 Owner: SPXS Country: US Constellation: starlink
LEOCIRCULAR

Starlink 3739について

説明を読み込み中...

リアルタイム位置

3D地球を読み込み中...

次回通過

高度履歴

Altitude vs Time

uPlot chart will show altitude changes over time

軌道要素

1 52266U 22041F 25343.48191853 .00000512 00000-0 50262-4 0 9993
2 52266 53.2164 154.0782 0001194 89.0663 271.0466 15.08837589200741
Epoch: Dec 9, 2025 • Age: 7 hours

現在のステータス

高度 544.8 km
速度 7.60 km/s
衛星直下点 49.86°N, 83.82°W
打ち上げ日 Apr 21, 2022
運用期間 3.6 years
タイプ internet

技術仕様

分類 Payload
質量 297.00 kg
乾燥質量 275.00 kg
総質量 297.00 kg
長さ 0.20 m
直径 2.80 m
スパン 9.00 m
形状 Box + pan
製造者 SPXS
バスタイプ Starlink
フェーズステータス In Orbit
所有者/国 SPXS/US

大規模コンステレーション

Loading constellations...